Showing default

FLOCK 4Q 25, 58303

Orbit data source: Space-Track

FLOCK 4Q 25, 58303 is a payload satellite owned by Planet (US) in SSO that was launched on Sat, 11 Nov 2023 UTC via an FALCON 9 launch vehicle from the Air Force Western Test Range (AFWTR). Payload-class satellites include a variety of spacecraft equipped with specific instruments for various scientific and technological missions. These include communications satellites like Starlink; space stations such as the ISS; scientific satellites like the Hubble; Earth observation satellites from companies like Planet Labs, Umbra, and HawkEye 360; GPS; miniature CubeSats for education and research; and military/defense satellites.

Loading next visibility...
Identifier
58303, 2023-174AZ
Orbit
SSO
Country
Flag of USUS
Related business
Manufacturer
Planet
Mission
Non-operational Commercial Imaging
Bus & Motor
CUBESAT 3U, Unknown motor
Mass
5.7 kg wet, 5.7 kg dry
Launch date (UTC)
2023-11-11 (2 years ago)
Launch vehicle
FALCON 9
Launch site
Air Force Western Test Range (AFWTR)
Object type
Payload
Rocket body
Debris
Shape & HBR
Box + 2 Pan, 1.0 m
Radar Cross Section
0.072 m², Medium (>0.1 m² and < 1m²)

Expand to show TLE details & history
Last TLE update: 10 hours ago

TLE from 10 hours ago
0 FLOCK 4Q 25
1 58303U 23174AZ  26126.82138102  .00145344  00000-0  11664-2 0  9999
2 58303  97.3808 219.4001 0007726 254.6746 105.3663 15.70522746139544
Epoch: 2026-05-06T19:42Z
TLE epoch observation values (Epoch: 2026-05-06T19:42:47.320Z)
Latitude
0.00002°
Longitude
59.02656°
Altitude
361.944 km
Speed
7.691 km/s
True Right ascension
14h 37m 36s
True Declination
0° 00' 00"
Sunlit
Object was in full shadow at epoch
Visualization orbit readout
Latitude
Unknown
Longitude
Unknown
Altitude
Unknown
Speed
Unknown
Apparent Right ascension
Unknown
Apparent Declination
Unknown
Sunlit
N/A
Visualization observer readout
Local Sidereal Time
13:56:56
Azimuth
Unknown
Elevation
Unknown
Doppler factor
Unknown
Orbital elements
Apogee altitude
359.501 km
Perigee altitude
349.098 km
Semi-major axis
6,732.437 km
Eccentricity
0.00077
Inclination
97.3808°
RAAN
219.4001°
Arg. of periapsis
254.6746°
True anomaly
105.45165°
Mean anomaly
105.3663°
Eccentric anomaly
105.40898°
Mean motion
3.92902 °/min
Orbital period
91.63 mins
BSTAR
0.0011664
Loading maneuver chart data...
Computing Atmospheric mass density...
Loading historical data...
Loading historical data...
Loading historical data...
Loading historical data...
Loading historical data...
Loading historical data...
Loading historical data...

Documentation

Showing up to 5 results
|